ホームページへジャンプ


OAA彗星課報告<2000年11月29日号>


● C/2000 W1(Utsunomiya-Jones)
 去る11月18日、九州の宇都宮章吾氏によって発見された新彗星は、11月25日にニュージーランドのJones氏も独立に発見し、12月上旬ころから夕方の西南の空に低く見える可能性が出てきました(11月下旬には-70°くらいまで南下)。
 下記は夕方18時の毎日の予報です。但し12月下旬ころには太陽に近く、見えなくなります。
(Elongationに注意)
(IAUC 7526,7527より)

    T     = 2000 Dec. 26.560 TT
    Peri. =  51.520
    Node  =  10.810  2000.0
    Incl. = 160.160
    q     =   0.3214 AU

  2001/0  R.A.(2000) Decl.  Delta    r    m1   Elong
  09h00m  h  m       o  '                        o
Dec. 1  19 04.35  -52 51.9  0.374  0.754  6.6  42.5
Dec. 2  19 13.18  -48 54.3  0.401  0.733  6.7  41.1
Dec. 3  19 19.59  -45 24.8  0.429  0.712  6.7  39.9
Dec. 4  19 24.36  -42 20.5  0.460  0.690  6.7  38.8
Dec. 5  19 27.94  -39 38.2  0.492  0.669  6.7  37.8
Dec. 6  19 30.65  -37 14.8  0.524  0.647  6.7  36.9
Dec. 7  19 32.66  -35 07.7  0.558  0.626  6.7  35.9
Dec. 8  19 34.12  -33 14.6  0.592  0.605  6.7  35.0
Dec. 9  19 35.12  -31 33.6  0.627  0.583  6.6  34.1
Dec.10  19 35.72  -30 03.0  0.663  0.562  6.6  33.1
Dec.11  19 35.97  -28 41.4  0.699  0.541  6.6  32.1
Dec.12  19 35.90  -27 27.8  0.735  0.520  6.5  31.1
Dec.13  19 35.54  -26 21.0  0.772  0.499  6.4  30.0
Dec.14  19 34.89  -25 20.4  0.808  0.479  6.3  28.9
Dec.15  19 33.98  -24 25.3  0.845  0.459  6.3  27.7
Dec.16  19 32.79  -23 35.1  0.882  0.439  6.2  26.5
Dec.17  19 31.34  -22 49.3  0.919  0.421  6.1  25.3
Dec.18  19 29.62  -22 07.7  0.955  0.403  6.0  23.9
Dec.19  19 27.63  -21 29.9  0.992  0.386  5.9  22.6
Dec.20  19 25.36  -20 55.6  1.027  0.371  5.8  21.1
T.Seki



Copyright (C) 2000 Tsutomu Seki. (関勉)